STARLINK-1228 (45188 NORAD) Tracking and Keplerian Element Data

This shows tracking and keplerian element data for the satellite.

Feedback or suggestion? Click here.




ElementValue
Catalog45188
NameSTARLINK-1228
Epoch Orbit2235
Epoch Day190.25001157
Epoch Year2020
RAAN301.213
Inclination52.9941
Eccentricity0.0001159
Argument of Perigee101.591
Mean Anonmoly296.6925
Mean Motion15.05561563
Decay Rate0.0003746
L11 45188U 20012L 20190.25001157 .00037460 00000-0 25778-2 0 9995
L22 45188 52.9941 301.2130 0001159 101.5910 296.6925 15.05561563 22359

Live tracking and technical data element details for STARLINK-1228 (NORAD 45188). STARLINK-1228 can be tracked NOW for your location showing map with azimuth and elevation plus other details from your city location.

Track the satellite on the map from your city or location and see movement details for azimuth, elevation, latitude, longitude, range, height, and movement on the map or in text.







IsCatalogInMostPopularTable: catalog: 45188, numindb: 27
Update: records affected: 1



GetName: 45188 STARLINK-1228

Hit Count: updated at: Fri, 10 Jul 2020 04:22:57 GMT